STARLINK-33819, 63494

Orbit data source: Space-Track

STARLINK-33819, 63494 is a payload satellite owned by SpaceX/Seattle (US) in LEO that was launched on Mon, 07 Apr 2025 UTC via an FALCON 9 launch vehicle from the Air Force Western Test Range (AFWTR). Payload-class satellites include a variety of spacecraft equipped with specific instruments for various scientific and technological missions. These include communications satellites like Starlink; space stations such as the ISS; scientific satellites like the Hubble; Earth observation satellites from companies like Planet Labs, Umbra, and HawkEye 360; GPS; miniature CubeSats for education and research; and military/defense satellites.

Loading next visibility...
Identifier
63494, 2025-071B
Orbit
LEO
Last TLE update
10 hours ago
Origin
Manufacturer
SpaceX/Seattle
Mission
Operational Commercial Communications
Bus & Motor
STARLINK V2MO, Unknown motor
Mass
575 kg wet, ~530 kg dry
Launch date (UTC)
2025-04-07 (3 months ago)
Launch vehicle
FALCON 9
Launch site
Air Force Western Test Range (AFWTR)
Object type
Payload
Rocket body
Debris
Shape & HBR
Box + 1 Pan, 29 m
Radar Cross Section
41.120 m², Large (>1 m²)

Expand to show TLE details & history

TLE from 10 hours ago
0 STARLINK-33819
1 63494U 25071B   25182.51873292  .00009486  00000-0  33198-3 0  9990
2 63494  53.1587 228.7839 0001132  83.7968 276.3162 15.30201643 14269
Epoch: 2025-07-01T12:26Z
TLE epoch observation values (Epoch: 2025-07-01T12:26:58.524Z)
Latitude
0.00001°
Longitude
122.22703°
Altitude
476.024 km
Speed
7.629 km/s
True Right ascension
15h 15m 08s
True Declination
0° 00' 00"
Sunlit
Object was in full shadow at epoch
Visualization orbit readout
Latitude
53.17988°
Longitude
-155.25969°
Altitude
480.956 km
Speed
7.632 km/s
Apparent Right ascension
21h 22m 44s
Apparent Declination
8° 54' 12"
Sunlit
Object is in daylight
Visualization observer readout
Local Sidereal Time
09:54:16
Azimuth
10.287° NNE
Elevation
-40.638°
Doppler factor
1
Orbital elements
Apogee altitude
476.243 km
Perigee altitude
474.691 km
Semi-major axis
6,853.604 km
Eccentricity
0.00011
Inclination
53.1587°
RAAN
228.7839°
Arg. of periapsis
83.7968°
True anomaly
Unknown
Mean anomaly
276.3162°
Eccentric anomaly
Unknown
Mean motion
3.82529 °/min
Orbital period
94.11 mins
BSTAR
0.00033198
Loading maneuver chart data...
Loading SW <> Apogee altitude chart data...
Loading historical data...
Loading historical data...
Loading historical data...
Loading historical data...
Loading historical data...
Loading historical data...
Loading historical data...

STARLINK-33819 Visibility forecast

Observer location: undefined°, undefined°

Span
Click to sort rows by Start time (UTC) header in descending order
Start Az.
Max El. time (UTC)
Max El. Az.
Max El.
End time (UTC)
End Az.
7 mins2025-07-02 05:51:53.772Z229.39° WSW2025-07-02 05:55:53.772Z46.739° ENE42.756°2025-07-02 05:58:53.772Z49.812° ENE
4 mins2025-07-02 10:49:53.772Z341.379° N2025-07-02 10:51:53.772Z16.274° NNE16.153°2025-07-02 10:53:53.772Z53.952° ENE
6 mins2025-07-02 12:27:53.772Z314.507° NW2025-07-02 12:30:53.772Z93.627° ESE42.516°2025-07-02 12:33:53.772Z125.132° SE
|